Location: Brachbach
(49.1847°N, 9.7240°E)
Time: 01:51:07
(UTC+00:00)

Cosmos 2221 Rocket - Pass Details

Date: 23 May 2024
Orbit: 617 x 646 km, 82.5° (Epoch: 13 June)

Event Time Altitude Azimuth Distance (km) Brightness Sun altitude
Exits shadow 02:28:24 - 186° (S) 2,555 6.2 -8.4°
Reaches altitude 10° 02:29:41 10° 186° (S) 2,040 5.8 -8.2°
Maximum altitude 02:34:13 84° 98° (E) 655 3.7 -7.7°
Drops below altitude 10° 02:38:47 10° 11° (N) 2,048 7.2 -7.1°
Sets 02:41:02 0° 11° (N) 2,959 8.0 -6.9°
